This demonstration page uses our WeatherBlox Daily Observations layout. Learn more.

Left ArrowRight Arrow

36.17497, -115.13722

Hourly Observations for September 15, 2015

Temp ( °F °C ) Dew Point ( °F °C ) Humidity (%) Winds ( mph kmh ) Pressure ( in mb ) Visibility ( mi km ) Precip ( " mm )
12:53 am 00:53 Clear 80 26.7 51 10.6 37 37 S 9 15 29.69 1005 10 16 N/A
1:53 am 01:53 Clear 79 26.1 51 10.6 38 38 SSW 14 22 29.70 1006 10 16 N/A
2:53 am 02:53 Clear 77 25 52 11.1 42 42 SSW 12 19 29.70 1006 10 16 N/A
3:53 am 03:53 Clear 76 24.4 53 11.7 45 45 SSW 17 28 29.71 1006 10 16 N/A
4:53 am 04:53 Clear 75 23.9 53 11.7 46 46 SSW 13 20 29.72 1007 10 16 N/A
5:53 am 05:53 Clear 74 23.3 53 11.7 48 48 S 16 26 29.73 1007 10 16 N/A
6:53 am 06:53 Sunny 74 23.3 53 11.7 48 48 SSW 15 24 29.75 1007 10 16 N/A
7:53 am 07:53 Sunny 76 24.4 53 11.7 45 45 S 21 33 29.77 1008 10 16 N/A
8:53 am 08:53 Sunny 78 25.6 53 11.7 42 42 S 20 31 29.78 1009 10 16 N/A
9:53 am 09:53 Sunny 82 27.8 50 10 33 33 SSW 13 20 29.79 1009 10 16 N/A
10:53 am 10:53 Mostly Sunny 83 28.3 50 10 32 32 SW 10 17 29.80 1009 10 16 N/A
11:53 am 11:53 Cloudy with Light Rain 79 26.1 58 14.4 49 49 SW 17 28 29.83 1010 10 16 N/A
12:53 pm 12:53 Cloudy with Light Rain 75 23.9 59 15 58 58 SW 15 24 29.86 1011 10 16 N/A
1:53 pm 13:53 Cloudy 76 24.4 59 15 56 56 SW 15 24 29.87 1012 10 16 N/A
2:53 pm 14:53 Mostly Cloudy 77 25 59 15 54 54 SSW 16 26 29.86 1011 10 16 N/A
3:53 pm 15:53 Sunny 81 27.2 57 13.9 44 44 SSW 22 35 29.84 1011 10 16 N/A
4:53 pm 16:53 Sunny 78 25.6 58 14.4 50 50 SSW 22 35 29.83 1010 10 16 N/A
5:53 pm 17:53 Mostly Cloudy 78 25.6 57 13.9 48 48 SW 14 22 29.82 1010 10 16 N/A
6:53 pm 18:53 Clear 76 24.4 57 13.9 52 52 SSW 17 28 29.82 1010 10 16 N/A
7:53 pm 19:53 Clear 75 23.9 58 14.4 55 55 S 13 20 29.83 1010 10 16 N/A
8:53 pm 20:53 Clear 74 23.3 59 15 60 60 SSE 10 17 29.84 1010 10 16 N/A
9:53 pm 21:53 Clear 72 22.2 59 15 64 64 E 6 9 29.84 1010 10 16 N/A
10:53 pm 22:53 Clear 73 22.8 59 15 62 62 S 10 17 29.81 1010 10 16 N/A
11:53 pm 23:53 Clear 74 23.3 58 14.4 57 57 S 12 19 29.81 1010 10 16 N/A

Powered by AerisWeather